When you browse on this site, cookies collect data to enhance your experience and personalize the content and advertising you see.
Visit our Privacy Policy to learn more. By continuing to use the site, you agree to this use of cookies and data.
  • In Sweden
  • List of Countries
  • For 7 days
  • Water Temperature
  • Weather Map
  • Weather Widgets
  • user-avatar
    Login

    Hourly Weather Dobrovlyany

    Today, 31 May, Sunday

    Time Temperature Precipitation Wind Pressure Humidity
    00:00 +9°C° 1.9 mm 7 mps 725 mmHg 99%
    01:00 +9°C° 2.9 mm 7 mps 725 mmHg 99%
    02:00 +9°C° 2.8 mm 7 mps 724 mmHg 99%
    03:00 +9°C° 1.8 mm 7 mps 724 mmHg 98%
    04:00 +8°C° 0.8 mm 7 mps 723 mmHg 98%
    05:00 +8°C° 0.4 mm 7 mps 723 mmHg 98%
    06:00 +8°C° 0.7 mm 6 mps 723 mmHg 100%
    07:00 +8°C° 0.6 mm 7 mps 723 mmHg 98%
    08:00 +9°C° 0.1 mm 7 mps 723 mmHg 91%
    09:00 +9°C° 0 mm 8 mps 723 mmHg 91%
    10:00 +9°C° 0 mm 7 mps 724 mmHg 92%
    11:00 +9°C° 0 mm 6 mps 724 mmHg 93%
    12:00 +9°C° 0 mm 6 mps 725 mmHg 96%
    13:00 +13°C° 0 mm 4 mps 725 mmHg 97%
    14:00 +14°C° 1.4 mm 3 mps 725 mmHg 97%
    15:00 +14°C° 2.8 mm 5 mps 726 mmHg 95%
    16:00 +14°C° 1 mm 5 mps 725 mmHg 97%
    17:00 +16°C° 0.6 mm 3 mps 726 mmHg 95%
    18:00 +15°C° 0 mm 5 mps 726 mmHg 92%
    19:00 +15°C° 0.1 mm 4 mps 726 mmHg 92%
    20:00 +14°C° 0 mm 4 mps 727 mmHg 94%
    21:00 +14°C° 0 mm 4 mps 727 mmHg 95%
    22:00 +13°C° 0 mm 4 mps 727 mmHg 97%
    23:00 +13°C° 0 mm 4 mps 728 mmHg 97%

    Tomorrow, 1 June, Monday

    Time Temperature Precipitation Wind Pressure Humidity
    00:00 +13°C° 0 mm 4 mps 728 mmHg 97%
    01:00 +13°C° 0 mm 4 mps 728 mmHg 97%
    02:00 +12°C° 0 mm 5 mps 728 mmHg 98%
    03:00 +12°C° 0 mm 5 mps 728 mmHg 98%
    04:00 +12°C° 0 mm 5 mps 728 mmHg 97%
    05:00 +10°C° 0 mm 6 mps 729 mmHg 97%
    06:00 +10°C° 0 mm 6 mps 729 mmHg 97%
    07:00 +10°C° 0 mm 6 mps 730 mmHg 97%
    08:00 +10°C° 0 mm 6 mps 730 mmHg 95%
    09:00 +11°C° 0 mm 6 mps 730 mmHg 93%
    10:00 +12°C° 0 mm 7 mps 731 mmHg 92%
    11:00 +11°C° 0 mm 7 mps 731 mmHg 92%
    12:00 +12°C° 0 mm 7 mps 732 mmHg 89%
    13:00 +14°C° 0 mm 7 mps 732 mmHg 86%
    14:00 +14°C° 0 mm 7 mps 732 mmHg 85%
    15:00 +14°C° 0 mm 7 mps 732 mmHg 84%
    16:00 +14°C° 0 mm 7 mps 732 mmHg 82%
    17:00 +12°C° 0 mm 7 mps 732 mmHg 83%
    18:00 +13°C° 0 mm 6 mps 732 mmHg 83%
    19:00 +11°C° 0 mm 6 mps 732 mmHg 85%
    20:00 +10°C° 0 mm 6 mps 733 mmHg 88%
    21:00 +10°C° 0 mm 5 mps 733 mmHg 91%
    22:00 +9°C° 0 mm 5 mps 733 mmHg 92%
    23:00 +8°C° 0 mm 4 mps 733 mmHg 96%

    Day after tomorrow, 2 June, Tuesday

    Time Temperature Precipitation Wind Pressure Humidity
    00:00 +7°C° 0 mm 4 mps 733 mmHg 97%
    01:00 +7°C° 0 mm 4 mps 732 mmHg 98%
    02:00 +6°C° 0 mm 4 mps 732 mmHg 99%
    03:00 +6°C° 0 mm 4 mps 732 mmHg 100%
    04:00 +5°C° 0 mm 4 mps 731 mmHg 100%
    05:00 +5°C° 0 mm 4 mps 731 mmHg 100%
    06:00 +6°C° 0 mm 5 mps 731 mmHg 99%
    07:00 +7°C° 0 mm 5 mps 732 mmHg 98%
    08:00 +8°C° 0 mm 4 mps 731 mmHg 98%
    09:00 +8°C° 0 mm 4 mps 732 mmHg 98%
    10:00 +10°C° 0 mm 3 mps 732 mmHg 96%
    11:00 +12°C° 0 mm 4 mps 731 mmHg 92%
    12:00 +12°C° 3.2 mm 4 mps 731 mmHg 89%
    13:00 +13°C° 0.2 mm 6 mps 730 mmHg 87%
    14:00 +14°C° 0 mm 6 mps 730 mmHg 85%
    15:00 +14°C° 0 mm 6 mps 730 mmHg 84%
    16:00 +14°C° 0 mm 6 mps 729 mmHg 85%
    17:00 +14°C° 0 mm 6 mps 729 mmHg 88%
    18:00 +13°C° 0 mm 6 mps 729 mmHg 88%
    19:00 +12°C° 0 mm 5 mps 728 mmHg 91%
    20:00 +11°C° 0 mm 4 mps 728 mmHg 92%
    21:00 +11°C° 0 mm 4 mps 728 mmHg 95%
    22:00 +11°C° 0 mm 4 mps 728 mmHg 96%
    23:00 +10°C° 0 mm 4 mps 728 mmHg 95%

    3 June, Wednesday

    Time Temperature Precipitation Wind Pressure Humidity
    00:00 +10°C° 0 mm 4 mps 728 mmHg 96%
    01:00 +10°C° 0 mm 4 mps 728 mmHg 97%
    02:00 +8°C° 0 mm 4 mps 727 mmHg 97%
    03:00 +8°C° 0 mm 4 mps 727 mmHg 98%
    04:00 +8°C° 0 mm 4 mps 727 mmHg 98%
    05:00 +9°C° 0 mm 3 mps 727 mmHg 98%
    06:00 +9°C° 0 mm 3 mps 727 mmHg 99%
    07:00 +10°C° 0.1 mm 3 mps 727 mmHg 95%
    08:00 +10°C° 0.1 mm 4 mps 727 mmHg 97%
    09:00 +11°C° 0 mm 4 mps 727 mmHg 95%
    10:00 +12°C° 0 mm 4 mps 727 mmHg 93%
    11:00 +13°C° 0 mm 5 mps 727 mmHg 88%
    12:00 +14°C° 0 mm 3 mps 727 mmHg 84%
    13:00 +16°C° 0 mm 3 mps 726 mmHg 80%
    14:00 +13°C° 0.9 mm 3 mps 726 mmHg 85%
    15:00 +13°C° 0.1 mm 4 mps 726 mmHg 80%
    16:00 +16°C° 0 mm 1 mps 726 mmHg 73%
    17:00 +12°C° 3.2 mm 4 mps 726 mmHg 94%
    18:00 +12°C° 2.7 mm 2 mps 726 mmHg 92%
    19:00 +12°C° 0 mm 3 mps 726 mmHg 93%
    20:00 +12°C° 0.6 mm 2 mps 726 mmHg 96%
    21:00 +11°C° 0 mm 3 mps 726 mmHg 93%
    22:00 +11°C° 0 mm 3 mps 726 mmHg 96%
    23:00 +12°C° 0.2 mm 2 mps 726 mmHg 94%

    4 June, Thursday

    Time Temperature Precipitation Wind Pressure Humidity
    00:00 +10°C° 0.1 mm 3 mps 726 mmHg 98%
    01:00 +10°C° 0 mm 2 mps 725 mmHg 99%
    02:00 +10°C° 0 mm 2 mps 725 mmHg 97%
    03:00 +10°C° 0.1 mm 2 mps 725 mmHg 100%
    04:00 +10°C° 0.1 mm 2 mps 725 mmHg 99%
    05:00 +8°C° 2 mm 5 mps 726 mmHg 99%
    06:00 +8°C° 3.9 mm 5 mps 725 mmHg 100%
    07:00 +8°C° 2.8 mm 4 mps 726 mmHg 99%
    08:00 +10°C° 0.8 mm 3 mps 725 mmHg 99%
    09:00 +10°C° 0.1 mm 3 mps 726 mmHg 98%
    10:00 +12°C° 0 mm 4 mps 727 mmHg 96%
    11:00 +14°C° 0.1 mm 4 mps 727 mmHg 92%
    12:00 +15°C° 0.1 mm 4 mps 727 mmHg 89%
    13:00 +15°C° 0.1 mm 4 mps 726 mmHg 84%
    14:00 +17°C° 0 mm 4 mps 726 mmHg 83%
    15:00 +18°C° 0 mm 4 mps 727 mmHg 82%
    16:00 +17°C° 0 mm 5 mps 727 mmHg 81%
    17:00 +16°C° 0 mm 5 mps 727 mmHg 84%
    18:00 +17°C° 0 mm 4 mps 727 mmHg 87%
    19:00 +16°C° 0 mm 3 mps 727 mmHg 86%
    20:00 +16°C° 0 mm 3 mps 727 mmHg 92%
    21:00 +13°C° 0 mm 3 mps 728 mmHg 96%
    22:00 +13°C° 0 mm 3 mps 728 mmHg 97%
    23:00 +12°C° 0 mm 3 mps 728 mmHg 97%

    5 June, Friday

    Time Temperature Precipitation Wind Pressure Humidity
    00:00 +12°C° 0 mm 3 mps 728 mmHg 98%
    01:00 +12°C° 0 mm 2 mps 728 mmHg 99%
    02:00 +11°C° 0 mm 3 mps 728 mmHg 96%
    03:00 +11°C° 0 mm 3 mps 728 mmHg 96%
    04:00 +10°C° 0 mm 2 mps 729 mmHg 97%
    05:00 +12°C° 0 mm 2 mps 729 mmHg 98%
    06:00 +12°C° 0 mm 1 mps 729 mmHg 98%
    07:00 +14°C° 0 mm 2 mps 730 mmHg 95%
    08:00 +14°C° 0 mm 2 mps 730 mmHg 93%
    09:00 +15°C° 0 mm 4 mps 730 mmHg 87%
    10:00 +17°C° 0 mm 4 mps 730 mmHg 86%
    11:00 +18°C° 0 mm 4 mps 730 mmHg 84%
    12:00 +19°C° 0 mm 4 mps 730 mmHg 82%
    13:00 +20°C° 0 mm 4 mps 730 mmHg 77%
    14:00 +21°C° 0 mm 4 mps 730 mmHg 72%
    15:00 +21°C° 0 mm 4 mps 730 mmHg 72%
    16:00 +21°C° 0 mm 3 mps 729 mmHg 74%
    17:00 +21°C° 0 mm 3 mps 729 mmHg 78%
    18:00 +21°C° 0 mm 2 mps 729 mmHg 80%
    19:00 +20°C° 0 mm 0 mps 729 mmHg 87%
    20:00 +19°C° 0 mm 0 mps 729 mmHg 84%
    21:00 +20°C° 0 mm 1 mps 729 mmHg 86%
    22:00 +18°C° 0 mm 2 mps 729 mmHg 93%
    23:00 +17°C° 0 mm 2 mps 729 mmHg 92%
    Show more